Location: Unspecified
(0.0000°N, 0.0000°E)
Time: 14:07:48
(UTC+00:00)

Altair - Pass Details

Date: 22 March 2026
Orbit: 1502 x 1682 km, 47.2° (Epoch: 18 April)

Event Time Altitude Azimuth Distance (km) Brightness Sun altitude
Exits shadow 04:14:32 17° 332° (NNW) 3,157 8.9 -28.1°
Maximum altitude 04:22:03 66° 51° (NE) 1,658 7.7 -26.2°
Drops below altitude 10° 04:31:32 10° 131° (SE) 3,794 10.2 -23.9°
Sets 04:34:42 0° 134° (SE) 4,805 10.8 -23.1°
